Location: Bosmont
(49.7318°N, 3.8587°E)
Time: 13:46:28
(UTC+00:00)

FO-29 - Pass Details

Date: 04 December 2023
Orbit: 799 x 1322 km, 98.6° (Epoch: 04 March)

Event Time Altitude Azimuth Distance (km) Brightness Sun altitude
Rises 01:15:16 0° 22° (NNE) 4,135 13.2 -56.1°
Reaches altitude 10° 01:18:34 10° 37° (NE) 3,232 12.6 -55.7°
Enters shadow 01:19:36 13° 43° (NE) 2,992 12.4 -55.6°
